Regional Weather Roundup
Issued by NWS

Home | Current Version | Previous Version | Graphics & Text | Print | Product List | Glossary On
Versions: 1 2 3 4 5 6 7 8 9 10 11 12 13 14 15 16 17 18 19 20 21 22 23 24 25 26 27 28 29 30 31 32 33 34 35 36 37 38 39 40 41 42 43 44 45 46 47 48 49 50
000
ASUS43 KLMK 261810
RWRKY
KENTUCKY REGIONAL WEATHER ROUNDUP
NATIONAL WEATHER SERVICE LOUISVILLE KY
200 PM EDT THU MAR 26 2015

NOTE "FAIR" INDICATES FEW OR NO CLOUDS BELOW 12,000 FEET
WITH NO SIGNIFICANT WEATHER AND/OR OBSTRUCTIONS TO VISIBILITY.

KYZ001>023-026-027-061>063-070>075-261900-
WESTERN AND SOUTH CENTRAL KENTUCKY

CITY           SKY/WX    TMP DP  RH WIND       PRES   REMARKS
PADUCAH        CLOUDY    44  41  89 N14       30.00S
HENDERSON      CLOUDY    43  37  81 NW14      29.99R
OWENSBORO      LGT RAIN  44  41  89 N12       29.96S
HOPKINSVILLE   LGT RAIN  46  45  93 NW10      29.95R FOG
BOWLING GREEN  CLOUDY    49  45  86 N7        29.92R FOG
GLASGOW        CLOUDY    49  46  88 N14       29.89R
$$

KYZ024-025-028>034-038-045-046-053-261900-
NORTH CENTRAL KENTUCKY

CITY           SKY/WX    TMP DP  RH WIND       PRES   REMARKS
LOUISVILLE/SDF LGT RAIN  46  42  86 N9        29.92R
LOUISVILLE/LOU LGT RAIN  45  41  86 NW9       29.92R
FORT KNOX      LGT RAIN  45  43  92 NW9       29.90R FOG
$$

KYZ035>037-039>044-047>052-055>060-089>105-261900-
NORTHEAST KENTUCKY

CITY           SKY/WX    TMP DP  RH WIND       PRES   REMARKS
LEXINGTON      CLOUDY    47  43  86 N13       29.87S
COVINGTON      CLOUDY    46  42  86 N8        29.87F
FRANKFORT      CLOUDY    48  43  82 N10       29.87S
$$

KYZ054-064>069-076>088-106>120-261900-
SOUTHEAST KENTUCKY

CITY           SKY/WX    TMP DP  RH WIND       PRES   REMARKS
JACKSON        LGT RAIN  59  57  93 VRB6      29.79R FOG
LONDON         PTSUNNY   66  54  65 W14G26    29.79F
SOMERSET       CLOUDY    55  50  82 N14G20    29.83S
MIDDLESBORO    MOSUNNY   72  54  52 SW10G18   29.78F
MONTICELLO     MOCLDY    62  56  81 NW16      29.84F
$$



USA.gov is the U.S. government's official web portal to all federal, state and local government web resources and services.